CAPE
288 65 0 0 0 0 6 1 1 0 39 68 27 0 0 0 49 59 159 125 132 71 0 218 120 219 187 89 0 265 302 297 309
342 68 14 0 0 0 1 3 0 0 17 64 39 19 0 86 94 173 144 118 87 1 0 0 1 58 176 200 249 241 281 240 190
334 86 60 10 0 0 7 6 0 0 0 72 46 0 0 76 100 83 65 52 0 0 0 0 0 0 0 30 207 207 216 184 102
334 103 85 50 20 25 28 30 24 11 0 19 36 14 0 0 0 0 3 20 0 0 0 0 0 0 0 0 0 0 35 66 25
341 125 117 67 44 19 33 40 34 20 0 0 0 0 0 11 8 0 18 0 0 0 0 0 0 0 0 0 0 0 0 0 0
118 36 39 56 36 28 21 31 42 8 0 0 0 0 11 20 11 2 0 28 9 0 0 0 0 0 0 0 0 0 0 0 0
95 58 25 42 43 25 25 28 31 1 0 0 0 0 5 9 13 8 0 40 57 13 0 0 0 0 0 0 0 0 0 0 0
47 53 57 73 15 54 29 42 19 0 0 0 0 0 0 0 1 0 0 15 97 99 10 0 0 0 0 0 0 0 0 0 0
0 0 0 0 0 5 7 1 0 0 0 0 0 0 0 0 0 0 0 0 40 123 100 17 0 0 0 0 0 0 0 0 0
0 0 0 0 0 0 0 0 0 0 0 0 0 0 0 0 0 0 0 0 0 82 124 127 38 1 0 1 1 0 0 0 0
0 0 0 0 0 0 0 0 0 0 0 0 0 0 0 0 0 0 0 0 0 0 84 128 118 68 14 10 7 6 1 4 2
0 0 0 0 0 0 0 0 0 0 0 0 0 0 0 0 0 0 0 0 0 0 24 84 135 118 75 26 10 9 5 3 6
62 29 41 34 0 0 0 0 0 0 0 3 0 0 2 9 14 10 0 0 0 0 0 21 104 168 113 90 36 32 23 3 0
210 136 74 62 67 62 47 34 30 80 63 23 5 17 26 36 16 42 53 41 0 0 0 0 15 174 212 88 70 51 52 16 0
223 224 195 133 103 91 108 132 197 95 103 39 2 33 27 41 51 47 11 3 2 0 0 0 0 0 30 176 110 98 112 123 31
131 327 343 298 216 194 196 178 130 130 116 40 33 56 0 0 0 0 1 6 0 0 0 0 0 0 0 30 200 145 121 153 210
518 494 487 417 302 288 150 35 41 4 6 39 49 9 0 0 0 0 0 0 0 0 0 0 0 0 0 0 4 93 176 181 201
1 24 3 5 55 19 125 113 29 92 64 2 85 55 14 21 17 0 0 0 0 0 0 0 0 0 0 0 0 0 0 68 215
0 0 0 3 9 11 14 31 12 16 46 2 1 13 1 26 20 15 1 0 0 0 0 0 0 0 0 0 0 0 0 0 16
0 0 0 0 0 2 9 11 14 7 5 15 6 1 23 3 14 29 35 11 5 0 0 0 0 0 0 0 0 0 0 3 5
CIN
-22 -126 0 0 0 0 0 0 0 0 -67 -43 -38 0 0 0 -14 -8 -2 0 0 -2 0 -89 0 -77 -78 0 0 -4 -1 -1 -2
-32 -63 -62 0 0 0 0 0 0 0 -59 -54 -72 -44 0 -22 -14 -1 -2 -6 -10 0 0 0 0 -4 -50 -4 -3 -1 0 -1 -19
-50 -73 -96 -101 0 0 -88 -82 0 0 0 -60 -81 0 0 -43 -30 -32 -43 -47 0 0 0 0 0 0 0 -1 -2 -6 -2 -4 -4
-71 -81 -82 -138 -198 -188 -181 -176 -186 -178 0 -148 -121 -164 0 0 0 0 0 -79 0 0 0 0 0 0 0 0 0 0 0 -5 -3
-79 -142 -76 -124 -163 -197 -182 -165 -170 -178 0 0 0 0 0 -121 -141 -6 -94 -5 0 0 0 0 0 0 0 0 0 0 0 0 0
-109 -178 -153 -119 -155 -172 -202 -170 -136 -210 0 0 0 0 -144 -121 -121 -60 0 -80 -117 0 0 0 0 0 0 0 0 0 0 0 0
-99 -144 -205 -156 -160 -170 -174 -159 -150 -61 0 0 0 0 -142 -132 -110 -120 0 -87 -49 -112 0 0 0 0 0 0 0 0 0 0 0
-141 -129 -120 -89 -187 -83 -130 -109 -130 0 0 0 0 0 0 0 -18 0 0 -134 -23 -31 -94 0 0 0 0 0 0 0 0 0 0
0 0 0 0 0 -124 -116 0 0 0 0 0 0 0 0 0 0 0 0 0 -58 -12 -24 -80 0 0 0 0 0 0 0 0 0
0 0 0 0 0 0 0 0 0 0 0 0 0 0 0 0 0 0 0 0 0 -20 -10 -15 -61 0 0 0 0 0 0 0 0
0 0 0 0 0 0 0 0 0 0 0 0 0 0 0 0 0 0 0 0 0 0 -13 -1 -7 -22 -47 0 0 0 0 0 0
0 0 0 0 0 0 0 0 0 0 0 0 0 0 0 0 0 0 0 0 0 0 -63 -12 0 0 -8 0 0 0 -2 0 0
-57 -77 -50 -33 0 0 0 0 0 0 0 -6 0 0 -9 -61 -54 -68 -3 0 0 0 0 -59 -24 -3 0 0 0 0 0 -8 0
-26 -27 -22 -17 -17 -19 -17 -16 -16 -7 -6 -29 -15 -30 -34 -30 -46 -37 -33 -45 0 0 0 0 -35 -21 -3 0 -2 -2 0 0 0
-20 -16 -13 -11 -14 -17 -11 -8 -1 -19 -7 -7 -4 -26 -23 -27 -17 -17 -5 -4 -2 0 0 0 0 0 -46 -8 -1 -12 -11 -16 -1
-36 -11 -5 -6 -10 -7 -2 -2 -5 -6 -2 -7 -5 -1 0 0 0 0 0 0 0 0 0 0 0 0 0 -29 -3 -3 -9 -2 -1
-5 -4 -2 -1 -4 -9 -15 -15 -10 0 -2 -2 0 0 0 0 0 0 0 0 0 0 0 0 0 0 0 0 -33 -15 -1 -2 0
0 -20 0 0 -6 -3 -11 -5 -10 -4 -9 0 -13 0 0 -8 0 0 0 0 0 0 0 0 0 0 0 0 0 0 -23 -10 -2
0 0 0 0 0 0 0 -86 -1 -4 -28 -1 0 -4 -2 -4 -6 -5 0 0 0 0 0 0 0 0 0 0 0 0 0 0 -24
0 0 0 0 0 0 0 0 0 -8 -7 -4 0 -1 -2 0 -5 0 0 -14 -22 0 0 0 0 0 0 0 0 0 0 0 0
Wind_Speed
13 13 11 10 10 11 11 10 10 11 10 10 10 9 5 6 7 7 7 10 12 12 11 10 6 11 6 6 6 7 10 10 12
14 12 11 10 10 10 10 9 10 10 10 10 10 9 3 7 7 6 8 9 10 9 9 9 9 12 13 8 6 9 10 10 11
13 11 10 9 9 9 9 8 8 8 9 9 8 6 4 5 6 6 6 8 8 8 8 9 10 10 10 10 9 9 9 9 9
13 10 8 8 8 7 7 7 6 6 7 7 6 5 3 2 4 3 4 6 7 7 7 7 8 8 8 8 8 7 7 7 7
10 9 6 6 6 6 5 5 5 5 5 4 4 2 3 1 1 2 6 4 5 5 5 5 5 6 6 6 7 8 7 6 6
8 7 6 5 5 4 4 4 4 4 4 3 1 4 1 2 0 1 6 2 1 3 3 3 3 4 4 5 4 5 5 7 6
1 4 3 2 2 2 2 3 4 6 2 4 6 3 2 2 2 1 3 4 4 2 1 1 2 2 2 2 2 3 3 3 2
4 3 5 5 5 5 6 6 5 3 3 3 3 3 4 3 3 1 3 6 7 6 5 4 4 4 4 3 3 2 2 2 2
4 3 4 4 4 4 4 3 4 4 5 5 5 5 5 4 3 3 5 7 9 10 7 7 6 7 6 6 4 3 2 1 1
4 4 4 4 3 4 4 4 4 5 5 5 6 6 6 6 4 4 8 7 10 11 11 10 9 9 9 7 6 5 4 4 3
4 4 4 4 4 4 4 4 4 4 5 6 7 7 6 7 7 5 5 9 10 12 13 13 13 11 10 10 9 8 7 7 6
6 5 4 5 4 6 5 5 5 5 5 7 7 6 7 6 7 7 6 5 11 13 14 15 15 14 13 12 12 11 10 9 8
6 5 5 5 5 5 5 5 6 6 6 6 5 6 6 8 8 7 7 7 7 9 14 16 17 16 15 15 14 13 14 13 13
7 6 6 6 6 6 6 6 7 7 7 7 7 7 7 8 7 10 10 10 9 7 7 11 12 14 16 17 17 16 15 17 16
7 7 8 7 7 7 7 9 7 8 7 7 8 8 8 8 8 10 9 9 8 8 9 7 8 15 17 19 19 19 17 16 19
8 7 7 7 8 9 9 8 9 8 8 6 7 7 7 9 9 8 8 7 5 6 6 6 6 6 13 16 19 20 20 19 18
7 8 8 8 8 9 9 9 8 6 5 5 4 5 6 8 5 4 4 6 4 4 5 6 7 7 7 7 8 16 21 22 21
3 5 5 6 5 7 7 7 9 7 5 8 5 3 6 2 2 4 3 3 2 3 3 4 5 6 7 6 9 12 13 19 22
3 3 4 6 4 6 7 6 5 6 6 2 5 7 2 3 3 1 2 2 4 4 3 4 5 5 5 6 7 9 12 15 18
3 3 4 4 3 6 7 7 6 5 5 5 3 5 5 6 5 3 4 2 4 6 6 6 5 5 5 5 6 12 12 13 16
Wind_Direction
115 103 97 97 99 103 101 94 81 72 69 75 81 83 88 241 85 71 78 63 51 44 37 46 43 37 41 31 33 51 76 83 74
117 111 106 105 106 106 102 92 80 71 63 79 87 80 34 99 100 83 73 53 38 45 34 26 24 31 30 34 55 72 74 74 70
122 119 118 117 116 118 117 109 99 92 84 91 93 82 351 101 76 53 41 37 42 46 38 32 23 12 15 22 44 58 72 70 67
135 132 129 120 116 116 117 115 103 97 90 96 106 101 10 45 63 47 52 47 48 47 45 36 29 21 12 10 14 38 44 56 67
121 127 119 120 118 123 124 121 115 105 90 83 71 114 233 91 89 71 64 36 46 44 40 32 24 25 22 16 10 14 15 356 1
167 78 121 122 129 140 142 134 125 118 119 96 112 248 271 235 270 2 92 341 3 42 30 15 5 12 12 9 15 21 22 26 27
172 118 118 121 125 159 159 156 148 221 235 178 201 254 278 260 256 295 126 262 272 224 215 288 302 314 327 328 343 4 20 47 57
202 191 195 210 184 221 202 187 221 237 266 259 268 287 272 266 264 232 209 254 264 255 223 227 255 264 262 267 283 319 349 20 16
214 225 218 224 223 239 246 247 249 243 243 258 269 266 268 264 261 253 206 250 259 265 246 233 240 251 254 256 260 271 298 308 320
213 227 229 236 236 241 244 247 252 252 255 250 252 259 258 259 259 268 169 237 252 258 265 250 238 245 248 248 248 244 239 239 230
221 230 233 236 233 238 245 252 255 260 254 261 255 259 259 262 259 265 261 204 239 248 252 259 253 243 244 244 241 235 242 234 231
227 243 238 233 233 243 245 252 256 261 257 261 262 259 264 260 263 254 261 250 211 236 245 249 255 253 245 246 246 232 219 232 232
230 238 243 244 235 238 243 247 248 252 259 262 260 253 256 260 259 260 257 254 264 212 227 241 244 249 249 244 247 239 221 217 218
232 240 246 242 242 239 245 246 248 260 258 262 265 261 261 262 259 260 262 259 255 263 225 216 246 249 249 252 249 246 235 219 218
237 245 247 248 244 247 243 251 254 256 270 270 267 266 263 261 258 259 264 269 267 267 267 264 244 227 242 246 249 252 250 236 222
241 248 251 245 248 252 258 261 258 256 249 267 260 251 251 269 264 266 275 284 269 270 269 261 266 258 219 244 249 249 251 251 234
247 250 255 251 250 255 254 246 249 254 248 260 312 280 281 258 250 268 276 291 296 277 278 285 283 282 282 288 277 256 256 258 259
310 285 280 269 259 258 269 263 240 247 229 230 246 260 259 343 199 253 275 298 306 314 290 303 306 304 300 299 275 250 266 271 267
15 330 296 269 265 257 261 254 235 239 242 201 240 253 225 244 275 263 269 247 273 297 293 292 316 313 314 328 303 318 306 291 281
29 359 329 317 289 274 273 267 233 220 229 222 204 216 209 231 238 257 246 279 275 304 312 330 327 356 340 332 348 347 321 304 292